Location: Dappach
(48.9767°N, 9.6998°E)
Time: 19:41:39
(UTC+00:00)

COSMOS 2428 - Pass Details

Date: 16 August 2024
Orbit: 842 x 857 km, 70.9° (Epoch: 09 September)

Event Time Altitude Azimuth Distance (km) Brightness Sun altitude
Exits shadow 23:04:33 22° 89° (E) 1,772 4.3 -27.5°
Drops below altitude 10° 23:08:04 10° 52° (NE) 2,487 5.5 -27.6°
Sets 23:11:00 0° 38° (NE) 3,431 6.5 -27.6°
